Flag for U.S.A. Weather past 2 weeks in Carson City, Nevada, U.S.A.

Now
96 °F

Mostly cloudy.


Feels Like: 91 °F
Forecast: 60 / 90 °F
Wind: 12 mph from West

Location: Reno Tahoe International Airport

Current Time: Jul 28, 2014 at 3:18:06 PM

Latest Report: Jul 28, 2014 at 2:55 PM


Visibility: 10 mi

Pressure: 29.93 "Hg

Humidity: 12%

Dew point: 35 °F

Location of Carson CityLocation

Historic Weather in Carson City — Graph

°F

Carson City temperature yesterday

Maximum temperature yesterday: 97 °F (at 2:55 PM)
Minimum temperature yesterday: 66 °F (at 5:55 AM)
Average temperature yesterday: 82 °F

Past Weeks' High & Low Weather Summary

 TemperatureHumidityPressure
High104 °F (Jul 14, 2:55 PM)93% (Jul 20, 9:55 PM)30.06 "Hg (Jul 20, 9:55 PM)
Low57 °F (Jul 24, 5:55 AM)6% (Jul 26, 2:55 PM)29.78 "Hg (Jul 16, 6:55 PM)
Average80 °F32%29.92 "Hg
* Reported Jul 13 1:55 PM — Jul 28 1:55 PM, Carson City, Weather by CustomWeather, © 2014

Note: Actual official high and low records may vary slightly from our data, if they occured in-between our weather recording intervals... More about our weather records

Advertising

Carson City weather history for previous 24 hours

 ConditionsComfort  
Time TempWeatherWind HumidityBarometerVisibility
1:55 PM
Jul 28
96 °FBroken clouds.8 mph11%29.94 "Hg10 mi
12:55 PM94 °FBroken clouds.3 mph12%29.97 "Hg10 mi
11:55 AM90 °FMore clouds than sun.5 mph14%30.00 "Hg10 mi
10:55 AM86 °FMore clouds than sun.3 mph17%30.01 "Hg10 mi
9:55 AM82 °FMostly cloudy.3 mph21%30.03 "Hg10 mi
8:55 AM78 °FMostly cloudy.3 mph25%30.03 "Hg10 mi
7:55 AM72 °FBroken clouds.No wind31%30.04 "Hg10 mi
6:55 AM67 °FBroken clouds.5 mph42%30.03 "Hg10 mi
5:55 AM69 °FPassing clouds.3 mph33%30.01 "Hg10 mi
4:55 AM68 °FPassing clouds.No wind39%30.00 "Hg10 mi
3:55 AM71 °FPassing clouds.No wind35%29.98 "Hg10 mi
2:55 AM76 °FPassing clouds.6 mph24%29.97 "Hg10 mi
1:55 AM76 °FPassing clouds.No wind25%29.99 "Hg10 mi
12:55 AM78 °FPartly cloudy.3 mph22%29.98 "Hg10 mi
11:55 PM
Jul 27
80 °FPassing clouds.8 mph20%29.98 "Hg10 mi
10:55 PM82 °FPartly cloudy.7 mph18%29.98 "Hg10 mi
9:55 PM84 °FPassing clouds.12 mph17%29.97 "Hg10 mi
8:55 PM88 °FBroken clouds.8 mph12%29.95 "Hg10 mi
7:55 PM89 °FBroken clouds.13 mph11%29.94 "Hg10 mi
6:55 PM92 °FBroken clouds.14 mph12%29.92 "Hg10 mi
5:55 PM94 °FBroken clouds.13 mph11%29.91 "Hg10 mi
4:55 PM95 °FBroken clouds.8 mph8%29.90 "Hg10 mi
3:55 PM97 °FBroken clouds.6 mph8%29.90 "Hg10 mi
Weather by CustomWeather, © 2014

See weather overviewHow to use our weather pages